| time (UTC) | temp F | wind direction | speed MPH | gust MPH | rain 1hr in | rain 24hr in | rain mn in | humidity % | barometer mb |
| 20260509211027 | 65 | 198 | 2.0 | 3.0 | 0.00 | 0.42 | 0.42 | 58 | 1004.8 |
| 20260509210523 | 64 | 263 | 3.0 | 7.0 | 0.00 | 0.42 | 0.42 | 59 | 1004.9 |
| 20260509210021 | 64 | 197 | 2.0 | 4.0 | 0.00 | 0.42 | 0.42 | 57 | 1004.8 |
| 20260509205520 | 63 | 204 | 2.0 | 11.0 | 0.00 | 0.42 | 0.42 | 63 | 1004.8 |
| 20260509205015 | 65 | 227 | 4.0 | 4.0 | 0.00 | 0.42 | 0.42 | 55 | 1005.1 |
| 20260509204512 | 64 | 232 | 1.0 | 4.0 | 0.00 | 0.42 | 0.42 | 66 | 1004.8 |
| 20260509204009 | 65 | 210 | 7.0 | 10.0 | 0.00 | 0.42 | 0.42 | 59 | 1004.8 |
| 20260509203504 | 63 | 282 | 10.0 | 15.0 | 0.00 | 0.42 | 0.42 | 57 | 1005.2 |
| 20260509203003 | 64 | 227 | 5.0 | 8.0 | 0.00 | 0.42 | 0.42 | 58 | 1005.2 |
| 20260509202458 | 63 | 197 | 2.0 | 4.0 | 0.00 | 0.42 | 0.42 | 63 | 1005.3 |
| 20260509201959 | 64 | 232 | 4.0 | 7.0 | 0.00 | 0.42 | 0.42 | 63 | 1005.3 |
| 20260509201454 | 64 | 229 | 4.0 | 6.0 | 0.00 | 0.42 | 0.42 | 63 | 1005.2 |
| 20260509200951 | 62 | 204 | 5.0 | 7.0 | 0.00 | 0.42 | 0.42 | 64 | 1005.3 |
| 20260509200446 | 64 | 215 | 2.0 | 6.0 | 0.00 | 0.42 | 0.42 | 63 | 1005.5 |
| 20260509195943 | 64 | 252 | 7.0 | 9.0 | 0.00 | 0.42 | 0.42 | 62 | 1005.4 |
| 20260509195439 | 65 | 208 | 4.0 | 7.0 | 0.00 | 0.42 | 0.42 | 62 | 1005.4 |
| 20260509194938 | 65 | 228 | 4.0 | 6.0 | 0.00 | 0.42 | 0.42 | 61 | 1005.6 |
| 20260509194434 | 64 | 218 | 3.0 | 4.0 | 0.00 | 0.42 | 0.42 | 66 | 1005.4 |
| 20260509193931 | 64 | 262 | 4.0 | 9.0 | 0.00 | 0.42 | 0.42 | 65 | 1005.5 |
| 20260509193430 | 62 | 224 | 4.0 | 10.0 | 0.00 | 0.42 | 0.42 | 64 | 1005.6 |
| 20260509192927 | 62 | 223 | 3.0 | 4.0 | 0.00 | 0.42 | 0.42 | 68 | 1005.7 |
| 20260509192424 | 62 | 214 | 4.0 | 3.0 | 0.00 | 0.42 | 0.42 | 69 | 1006.0 |
| 20260509191918 | 61 | 202 | 2.0 | 3.0 | 0.00 | 0.42 | 0.42 | 72 | 1006.0 |
| 20260509191414 | 62 | 46 | 4.0 | 7.0 | 0.00 | 0.42 | 0.42 | 68 | 1005.9 |
| 20260509190911 | 60 | 21 | 3.0 | 7.0 | 0.00 | 0.42 | 0.42 | 74 | 1005.9 |
| 20260509190408 | 60 | 236 | 4.0 | 4.0 | 0.00 | 0.42 | 0.42 | 73 | 1005.9 |
| 20260509185906 | 61 | 204 | 2.0 | 6.0 | 0.00 | 0.42 | 0.42 | 72 | 1006.1 |
| 20260509185402 | 61 | 256 | 3.0 | 6.0 | 0.00 | 0.42 | 0.42 | 73 | 1006.2 |
| 20260509184859 | 62 | 229 | 2.0 | 6.0 | 0.00 | 0.42 | 0.42 | 68 | 1006.1 |
| 20260509184356 | 62 | 227 | 4.0 | 6.0 | 0.00 | 0.42 | 0.42 | 70 | 1006.0 |
| 20260509183854 | 62 | 245 | 5.0 | 13.0 | 0.00 | 0.42 | 0.42 | 68 | 1006.1 |
| 20260509183348 | 61 | 239 | 4.0 | 9.0 | 0.00 | 0.42 | 0.42 | 73 | 1005.8 |
| 20260509182844 | 62 | 233 | 3.0 | 6.0 | 0.00 | 0.42 | 0.42 | 71 | 1006.1 |
| 20260509182341 | 62 | 274 | 5.0 | 11.0 | 0.00 | 0.42 | 0.42 | 74 | 1006.0 |
| 20260509181838 | 60 | 14 | 5.0 | 9.0 | 0.00 | 0.42 | 0.42 | 75 | 1006.2 |
| 20260509181335 | 59 | 224 | 4.0 | 4.0 | 0.00 | 0.42 | 0.42 | 77 | 1006.3 |
| 20260509180833 | 59 | 253 | 4.0 | 6.0 | 0.00 | 0.42 | 0.42 | 77 | 1006.3 |
| 20260509180329 | 57 | 210 | 4.0 | 6.0 | 0.00 | 0.42 | 0.42 | 82 | 1006.2 |
| 20260509175826 | 57 | 221 | 3.0 | 3.0 | 0.00 | 0.42 | 0.42 | 84 | 1006.4 |
| 20260509175322 | 57 | 214 | 3.0 | 7.0 | 0.00 | 0.42 | 0.42 | 82 | 1006.2 |
| 20260509174818 | 57 | 218 | 2.0 | 8.0 | 0.00 | 0.42 | 0.42 | 85 | 1006.2 |
| 20260509174313 | 57 | 261 | 4.0 | 9.0 | 0.00 | 0.42 | 0.42 | 82 | 1006.4 |
| 20260509173810 | 56 | 251 | 5.0 | 8.0 | 0.00 | 0.42 | 0.42 | 86 | 1006.5 |
| 20260509173305 | 55 | 200 | 3.0 | 4.0 | 0.00 | 0.42 | 0.42 | 87 | 1006.7 |
| 20260509172801 | 55 | 230 | 2.0 | 3.0 | 0.00 | 0.42 | 0.42 | 88 | 1006.4 |
| 20260509172259 | 54 | 250 | 4.0 | 8.0 | 0.00 | 0.42 | 0.42 | 87 | 1006.7 |
| 20260509171754 | 55 | 215 | 3.0 | 3.0 | 0.00 | 0.42 | 0.42 | 88 | 1006.7 |
| 20260509171250 | 55 | 232 | 1.0 | 6.0 | 0.00 | 0.42 | 0.42 | 87 | 1006.8 |
| 20260509170747 | 55 | 203 | 2.0 | 6.0 | 0.00 | 0.42 | 0.42 | 87 | 1006.5 |
| 20260509170243 | 55 | 223 | 4.0 | 7.0 | 0.00 | 0.42 | 0.42 | 88 | 1006.5 |
| 20260509165742 | 54 | 243 | 6.0 | 11.0 | 0.00 | 0.42 | 0.42 | 86 | 1006.5 |
| 20260509165237 | 54 | 278 | 4.0 | 9.0 | 0.00 | 0.42 | 0.42 | 89 | 1006.5 |
| 20260509164733 | 54 | 250 | 3.0 | 4.0 | 0.00 | 0.42 | 0.42 | 90 | 1006.5 |
| 20260509164229 | 53 | 228 | 1.0 | 7.0 | 0.00 | 0.42 | 0.42 | 91 | 1006.4 |
| 20260509163727 | 53 | 229 | 2.0 | 2.0 | 0.00 | 0.42 | 0.42 | 92 | 1006.5 |
| 20260509163223 | 53 | 218 | 2.0 | 4.0 | 0.00 | 0.42 | 0.42 | 91 | 1006.4 |
| 20260509162721 | 53 | 245 | 4.0 | 6.0 | 0.00 | 0.42 | 0.42 | 91 | 1006.5 |
| 20260509162216 | 53 | 237 | 2.0 | 6.0 | 0.00 | 0.42 | 0.42 | 92 | 1006.3 |
| 20260509161712 | 53 | 228 | 3.0 | 4.0 | 0.00 | 0.42 | 0.42 | 91 | 1006.5 |
| 20260509161208 | 53 | 186 | 3.0 | 3.0 | 0.00 | 0.42 | 0.42 | 92 | 1006.3 |
| 20260509160703 | 53 | 228 | 4.0 | 7.0 | 0.00 | 0.42 | 0.42 | 92 | 1006.4 |
| 20260509160200 | 53 | 219 | 2.0 | 3.0 | 0.00 | 0.42 | 0.42 | 92 | 1006.4 |
| 20260509155655 | 53 | 218 | 2.0 | 4.0 | 0.00 | 0.42 | 0.42 | 92 | 1006.2 |
| 20260509155152 | 53 | 221 | 1.0 | 4.0 | 0.00 | 0.42 | 0.42 | 92 | 1006.2 |
| 20260509154647 | 53 | 231 | 2.0 | 4.0 | 0.00 | 0.42 | 0.42 | 92 | 1006.1 |
| 20260509154145 | 53 | 258 | 5.0 | 7.0 | 0.00 | 0.42 | 0.42 | 92 | 1006.1 |
| 20260509153642 | 52 | 215 | 3.0 | 4.0 | 0.00 | 0.42 | 0.42 | 94 | 1006.2 |
| 20260509153138 | 52 | 230 | 2.0 | 6.0 | 0.00 | 0.42 | 0.42 | 94 | 1006.3 |
| 20260509152634 | 51 | 222 | 3.0 | 3.0 | 0.00 | 0.42 | 0.42 | 94 | 1006.1 |
| 20260509152132 | 51 | 235 | 3.0 | 4.0 | 0.00 | 0.42 | 0.42 | 94 | 1006.2 |
| 20260509151628 | 51 | 206 | 2.0 | 3.0 | 0.00 | 0.42 | 0.42 | 94 | 1006.2 |
| 20260509151126 | 51 | 271 | 4.0 | 4.0 | 0.00 | 0.42 | 0.42 | 94 | 1006.2 |
| 20260509150623 | 51 | 242 | 4.0 | 6.0 | 0.00 | 0.42 | 0.42 | 94 | 1006.1 |
| 20260509150121 | 51 | 240 | 2.0 | 7.0 | 0.00 | 0.42 | 0.42 | 94 | 1006.3 |
| 20260509145617 | 51 | 233 | 4.0 | 6.0 | 0.00 | 0.42 | 0.42 | 94 | 1006.2 |
| 20260509145112 | 51 | 209 | 2.0 | 4.0 | 0.00 | 0.42 | 0.42 | 95 | 1006.1 |
| 20260509144610 | 51 | 235 | 2.0 | 6.0 | 0.00 | 0.42 | 0.42 | 94 | 1006.1 |
| 20260509144106 | 51 | 220 | 1.0 | 4.0 | 0.00 | 0.42 | 0.42 | 95 | 1006.0 |
| 20260509143603 | 51 | 196 | 2.0 | 3.0 | 0.00 | 0.42 | 0.42 | 95 | 1006.2 |
| 20260509143101 | 51 | 228 | 4.0 | 3.0 | 0.00 | 0.42 | 0.42 | 95 | 1006.0 |
| 20260509142556 | 51 | 195 | 2.0 | 4.0 | 0.00 | 0.42 | 0.42 | 95 | 1006.2 |
| 20260509142053 | 51 | 214 | 3.0 | 3.0 | 0.00 | 0.42 | 0.42 | 95 | 1006.2 |
| 20260509141549 | 50 | 215 | 2.0 | 3.0 | 0.00 | 0.42 | 0.42 | 96 | 1006.2 |
| 20260509141045 | 50 | 214 | 2.0 | 3.0 | 0.00 | 0.42 | 0.42 | 96 | 1006.1 |
| 20260509140542 | 50 | 221 | 2.0 | 3.0 | 0.00 | 0.42 | 0.42 | 96 | 1006.3 |
| 20260509140041 | 50 | 257 | 4.0 | 6.0 | 0.00 | 0.42 | 0.42 | 96 | 1006.2 |
| 20260509135537 | 50 | 270 | 3.0 | 6.0 | 0.00 | 0.42 | 0.42 | 96 | 1006.2 |
| 20260509135035 | 50 | 213 | 3.0 | 3.0 | 0.00 | 0.42 | 0.42 | 96 | 1006.3 |
| 20260509134532 | 50 | 216 | 2.0 | 3.0 | 0.00 | 0.42 | 0.42 | 96 | 1006.3 |
| 20260509134029 | 50 | 206 | 2.0 | 6.0 | 0.00 | 0.42 | 0.42 | 96 | 1006.4 |
| 20260509133526 | 50 | 221 | 2.0 | 3.0 | 0.00 | 0.42 | 0.42 | 96 | 1006.4 |
| 20260509133024 | 49 | 185 | 1.0 | 3.0 | 0.00 | 0.42 | 0.42 | 96 | 1006.2 |
| 20260509132522 | 49 | 219 | 2.0 | 3.0 | 0.00 | 0.42 | 0.42 | 96 | 1006.5 |
| 20260509132020 | 49 | 237 | 4.0 | 4.0 | 0.00 | 0.42 | 0.42 | 96 | 1006.3 |
| 20260509131515 | 49 | 190 | 2.0 | 3.0 | 0.00 | 0.42 | 0.42 | 96 | 1006.5 |
| 20260509131013 | 49 | 147 | 2.0 | 2.0 | 0.00 | 0.42 | 0.42 | 96 | 1006.3 |
| 20260509130508 | 49 | 206 | 3.0 | 3.0 | 0.00 | 0.42 | 0.42 | 96 | 1006.3 |
| 20260509130005 | 49 | 171 | 1.0 | 3.0 | 0.00 | 0.42 | 0.42 | 96 | 1006.3 |
| 20260509125502 | 49 | 212 | 2.0 | 2.0 | 0.00 | 0.42 | 0.42 | 96 | 1006.4 |
| 20260509124957 | 49 | 243 | 4.0 | 4.0 | 0.00 | 0.42 | 0.42 | 96 | 1006.5 |
| 20260509124455 | 49 | 226 | 2.0 | 6.0 | 0.00 | 0.42 | 0.42 | 96 | 1006.4 |
| 20260509123952 | 49 | 206 | 1.0 | 4.0 | 0.00 | 0.42 | 0.42 | 96 | 1006.5 |
| 20260509123449 | 49 | 184 | 1.0 | 2.0 | 0.00 | 0.42 | 0.42 | 96 | 1006.4 |
| 20260509122945 | 49 | 163 | 0.0 | 1.0 | 0.00 | 0.42 | 0.42 | 96 | 1006.7 |
| 20260509122442 | 49 | 249 | 4.0 | 4.0 | 0.00 | 0.42 | 0.42 | 96 | 1006.8 |
| 20260509121939 | 48 | 215 | 2.0 | 7.0 | 0.07 | 0.42 | 0.42 | 96 | 1006.8 |
| 20260509121436 | 48 | 176 | 2.0 | 2.0 | 0.07 | 0.42 | 0.42 | 96 | 1006.7 |
| 20260509120934 | 48 | 200 | 1.0 | 2.0 | 0.00 | 0.41 | 0.41 | 96 | 1006.7 |
| 20260509120432 | 48 | 177 | 2.0 | 3.0 | 0.00 | 0.41 | 0.41 | 96 | 1006.7 |
| 20260509115930 | 48 | 132 | 1.0 | 1.0 | 0.00 | 0.41 | 0.41 | 96 | 1006.7 |
| 20260509115426 | 48 | 153 | 1.0 | 2.0 | 0.00 | 0.41 | 0.41 | 96 | 1006.8 |
| 20260509114924 | 48 | 199 | 2.0 | 2.0 | 0.00 | 0.41 | 0.41 | 97 | 1006.8 |
| 20260509114422 | 48 | 161 | 0.0 | 1.0 | 0.00 | 0.41 | 0.41 | 97 | 1006.8 |
| 20260509113922 | 48 | 161 | 2.0 | 2.0 | 0.00 | 0.41 | 0.41 | 97 | 1006.7 |
| 20260509113419 | 47 | 166 | 1.0 | 1.0 | 0.00 | 0.41 | 0.41 | 97 | 1006.8 |
| 20260509112915 | 47 | 10 | 2.0 | 2.0 | 0.00 | 0.41 | 0.41 | 97 | 1006.7 |
| 20260509112412 | 47 | 163 | 1.0 | 1.0 | 0.07 | 0.41 | 0.41 | 97 | 1006.7 |
| 20260509111909 | 47 | 163 | 0.0 | 1.0 | 0.07 | 0.41 | 0.41 | 97 | 1006.8 |
| 20260509111406 | 47 | 163 | 0.0 | 1.0 | 0.00 | 0.40 | 0.40 | 97 | 1006.7 |
| 20260509110904 | 47 | 163 | 0.0 | 1.0 | 0.00 | 0.40 | 0.40 | 97 | 1006.7 |
| 20260509110359 | 47 | 163 | 0.0 | 1.0 | 0.05 | 0.40 | 0.40 | 97 | 1006.7 |
| 20260509105858 | 47 | 165 | 1.0 | 1.0 | 0.00 | 0.39 | 0.39 | 97 | 1006.5 |
| 20260509105356 | 47 | 165 | 1.0 | 2.0 | 0.07 | 0.39 | 0.39 | 97 | 1006.4 |
| 20260509104853 | 47 | 166 | 1.0 | 2.0 | 0.07 | 0.39 | 0.39 | 97 | 1006.5 |
| 20260509104349 | 47 | 143 | 2.0 | 2.0 | 0.00 | 0.38 | 0.38 | 97 | 1006.4 |
| 20260509103847 | 47 | 158 | 2.0 | 2.0 | 0.00 | 0.38 | 0.38 | 97 | 1006.4 |
| 20260509103344 | 47 | 169 | 0.0 | 0.0 | 0.00 | 0.38 | 0.38 | 97 | 1006.5 |
| 20260509102843 | 47 | 169 | 2.0 | 2.0 | 0.12 | 0.38 | 0.38 | 97 | 1006.8 |
| 20260509102340 | 47 | 170 | 0.0 | 1.0 | 0.12 | 0.37 | 0.37 | 97 | 1006.8 |
| 20260509101835 | 47 | 171 | 1.0 | 1.0 | 0.12 | 0.36 | 0.36 | 97 | 1006.9 |
| 20260509101332 | 47 | 118 | 0.0 | 1.0 | 0.12 | 0.35 | 0.35 | 97 | 1006.7 |
| 20260509100830 | 47 | 117 | 2.0 | 2.0 | 0.12 | 0.34 | 0.34 | 97 | 1006.7 |
| 20260509100327 | 47 | 123 | 1.0 | 2.0 | 0.19 | 0.33 | 0.33 | 97 | 1006.9 |
| 20260509095823 | 47 | 121 | 1.0 | 2.0 | 0.19 | 0.31 | 0.31 | 97 | 1007.0 |
| 20260509095320 | 47 | 244 | 0.0 | 3.0 | 0.24 | 0.30 | 0.30 | 97 | 1007.2 |
| 20260509094817 | 47 | 105 | 0.0 | 1.0 | 0.19 | 0.28 | 0.28 | 97 | 1006.8 |
| 20260509094314 | 47 | 104 | 0.0 | 1.0 | 0.12 | 0.26 | 0.26 | 97 | 1007.2 |
| 20260509093812 | 47 | 104 | 0.0 | 1.0 | 0.12 | 0.25 | 0.25 | 97 | 1007.0 |
| 20260509093309 | 47 | 104 | 1.0 | 1.0 | 0.07 | 0.24 | 0.24 | 97 | 1007.2 |
| 20260509092808 | 46 | 104 | 1.0 | 1.0 | 0.05 | 0.23 | 0.23 | 97 | 1007.1 |
| 20260509092306 | 46 | 104 | 1.0 | 1.0 | 0.05 | 0.23 | 0.23 | 97 | 1007.2 |
| 20260509091803 | 46 | 104 | 0.0 | 1.0 | 0.07 | 0.22 | 0.22 | 97 | 1007.1 |
| 20260509091259 | 46 | 104 | 1.0 | 1.0 | 0.07 | 0.22 | 0.22 | 97 | 1007.1 |
| 20260509090757 | 46 | 104 | 1.0 | 2.0 | 0.00 | 0.21 | 0.21 | 97 | 1007.2 |
| 20260509090254 | 46 | 104 | 1.0 | 2.0 | 0.05 | 0.21 | 0.21 | 97 | 1007.4 |
| 20260509085751 | 46 | 104 | 0.0 | 0.0 | 0.12 | 0.21 | 0.21 | 97 | 1007.5 |
| 20260509085248 | 46 | 103 | 0.0 | 2.0 | 0.07 | 0.20 | 0.20 | 97 | 1007.5 |
| 20260509084745 | 46 | 109 | 1.0 | 1.0 | 0.05 | 0.19 | 0.19 | 97 | 1007.7 |
| 20260509084241 | 46 | 117 | 1.0 | 1.0 | 0.12 | 0.19 | 0.19 | 97 | 1007.6 |
| 20260509083740 | 46 | 117 | 0.0 | 2.0 | 0.12 | 0.18 | 0.18 | 97 | 1007.5 |
| 20260509083236 | 46 | 117 | 0.0 | 1.0 | 0.12 | 0.17 | 0.17 | 97 | 1007.4 |
| 20260509082732 | 46 | 116 | 1.0 | 2.0 | 0.14 | 0.16 | 0.16 | 97 | 1007.5 |
| 20260509082229 | 46 | 120 | 2.0 | 2.0 | 0.12 | 0.15 | 0.15 | 97 | 1007.3 |
| 20260509081726 | 46 | 119 | 2.0 | 2.0 | 0.17 | 0.14 | 0.14 | 97 | 1007.4 |
| 20260509081224 | 46 | 120 | 0.0 | 1.0 | 0.05 | 0.12 | 0.12 | 97 | 1007.6 |
| 20260509080722 | 46 | 120 | 1.0 | 1.0 | 0.07 | 0.11 | 0.11 | 97 | 1007.5 |
| 20260509080219 | 46 | 120 | 1.0 | 2.0 | 0.05 | 0.10 | 0.10 | 97 | 1007.5 |
| 20260509075717 | 46 | 111 | 1.0 | 2.0 | 0.17 | 0.10 | 0.10 | 97 | 1007.4 |
| 20260509075215 | 46 | 135 | 1.0 | 2.0 | 0.12 | 0.09 | 0.09 | 97 | 1007.3 |
| 20260509074711 | 46 | 133 | 0.0 | 2.0 | 0.07 | 0.07 | 0.07 | 97 | 1007.6 |
| 20260509074209 | 46 | 133 | 1.0 | 1.0 | 0.07 | 0.07 | 0.07 | 97 | 1007.6 |
| 20260509073705 | 46 | 125 | 0.0 | 1.0 | 0.00 | 0.06 | 0.06 | 97 | 1007.5 |
| 20260509073201 | 46 | 125 | 1.0 | 1.0 | 0.00 | 0.06 | 0.06 | 97 | 1007.5 |
| 20260509072658 | 46 | 124 | 1.0 | 2.0 | 0.00 | 0.06 | 0.06 | 97 | 1007.4 |
| 20260509072155 | 46 | 124 | 2.0 | 1.0 | 0.00 | 0.06 | 0.06 | 97 | 1007.4 |
| 20260509071651 | 46 | 125 | 2.0 | 2.0 | 0.00 | 0.06 | 0.06 | 97 | 1007.3 |
| 20260509071149 | 46 | 125 | 2.0 | 1.0 | 0.00 | 0.06 | 0.06 | 97 | 1007.4 |
| 20260509070645 | 46 | 125 | 1.0 | 1.0 | 0.00 | 0.06 | 0.06 | 97 | 1007.4 |
| 20260509070142 | 46 | 124 | 1.0 | 1.0 | 0.00 | 0.06 | 0.06 | 97 | 1007.5 |
| 20260509065638 | 46 | 105 | 1.0 | 1.0 | 0.00 | 0.06 | 0.06 | 97 | 1007.5 |
| 20260509065134 | 46 | 102 | 2.0 | 2.0 | 0.00 | 0.06 | 0.06 | 97 | 1007.4 |
| 20260509064631 | 46 | 105 | 1.0 | 3.0 | 0.00 | 0.06 | 0.06 | 97 | 1007.5 |
| 20260509064129 | 46 | 109 | 1.0 | 2.0 | 0.00 | 0.06 | 0.06 | 96 | 1007.3 |
| 20260509063626 | 46 | 109 | 2.0 | 2.0 | 0.05 | 0.06 | 0.06 | 97 | 1007.8 |
| 20260509063122 | 46 | 109 | 1.0 | 2.0 | 0.05 | 0.06 | 0.06 | 96 | 1007.7 |
| 20260509062620 | 46 | 108 | 2.0 | 3.0 | 0.00 | 0.05 | 0.05 | 96 | 1007.8 |
| 20260509062116 | 46 | 100 | 2.0 | 4.0 | 0.00 | 0.05 | 0.05 | 96 | 1007.8 |
| 20260509061613 | 46 | 102 | 2.0 | 2.0 | 0.07 | 0.05 | 0.05 | 97 | 1007.9 |
| 20260509061111 | 46 | 103 | 2.0 | 3.0 | 0.00 | 0.04 | 0.04 | 97 | 1008.1 |
| 20260509060609 | 46 | 106 | 2.0 | 2.0 | 0.00 | 0.04 | 0.04 | 97 | 1008.2 |
| 20260509060104 | 46 | 96 | 2.0 | 4.0 | 0.00 | 0.04 | 0.04 | 97 | 1008.1 |
| 20260509055600 | 46 | 121 | 1.0 | 1.0 | 0.00 | 0.04 | 0.04 | 96 | 1008.4 |
| 20260509055055 | 46 | 123 | 1.0 | 2.0 | 0.00 | 0.04 | 0.04 | 96 | 1008.4 |
| 20260509054553 | 46 | 110 | 2.0 | 2.0 | 0.00 | 0.04 | 0.04 | 96 | 1008.6 |
| 20260509054051 | 46 | 110 | 0.0 | 1.0 | 0.00 | 0.04 | 0.04 | 96 | 1008.5 |
| 20260509053549 | 46 | 113 | 2.0 | 2.0 | 0.00 | 0.04 | 0.04 | 96 | 1008.9 |
| 20260509053045 | 46 | 98 | 4.0 | 4.0 | 0.05 | 0.04 | 0.04 | 96 | 1008.6 |
| 20260509052543 | 46 | 105 | 2.0 | 3.0 | 0.00 | 0.03 | 0.03 | 96 | 1008.6 |
| 20260509052041 | 46 | 132 | 2.0 | 2.0 | 0.00 | 0.03 | 0.03 | 96 | 1008.9 |
| 20260509051539 | 46 | 147 | 2.0 | 2.0 | 0.00 | 0.03 | 0.03 | 96 | 1008.7 |
| 20260509051035 | 46 | 144 | 2.0 | 2.0 | 0.00 | 0.03 | 0.03 | 96 | 1008.5 |
| 20260509050533 | 46 | 110 | 1.0 | 3.0 | 0.00 | 0.03 | 0.03 | 96 | 1008.6 |
| 20260509050029 | 47 | 118 | 3.0 | 3.0 | 0.00 | 0.03 | 0.03 | 96 | 1008.7 |
| 20260509045526 | 46 | 119 | 4.0 | 4.0 | 0.07 | 0.03 | 0.03 | 96 | 1008.9 |
| 20260509045023 | 47 | 299 | 1.0 | 1.0 | 0.07 | 0.03 | 0.03 | 96 | 1009.2 |
| 20260509044520 | 47 | 298 | 2.0 | 2.0 | 0.00 | 0.02 | 0.02 | 96 | 1009.4 |
| 20260509044018 | 47 | 298 | 1.0 | 1.0 | 0.07 | 0.02 | 0.02 | 96 | 1009.4 |
| 20260509043514 | 47 | 298 | 1.0 | 2.0 | 0.00 | 0.01 | 0.01 | 96 | 1009.2 |
| 20260509043010 | 47 | 296 | 1.0 | 1.0 | 0.00 | 0.01 | 0.01 | 96 | 1009.4 |
| 20260509042506 | 47 | 296 | 2.0 | 2.0 | 0.05 | 0.01 | 0.01 | 96 | 1009.4 |
| 20260509042003 | 47 | 296 | 1.0 | 2.0 | 0.05 | 0.01 | 0.01 | 96 | 1009.3 |
| 20260509041459 | 47 | 296 | 0.0 | 0.0 | 0.00 | 0.00 | 0.00 | 96 | 1009.6 |
| 20260509040957 | 47 | 296 | 0.0 | 0.0 | 0.00 | 0.00 | 0.00 | 96 | 1009.9 |
| 20260509040455 | 47 | 296 | 1.0 | 1.0 | 0.07 | 0.00 | 0.00 | 96 | 1009.7 |
| 20260509035951 | 47 | 297 | 0.0 | 1.0 | 0.07 | 0.16 | 0.16 | 96 | 1009.6 |
| 20260509035448 | 47 | 297 | 0.0 | 1.0 | 0.05 | 0.15 | 0.15 | 96 | 1009.6 |
| 20260509034945 | 47 | 296 | 1.0 | 1.0 | 0.05 | 0.15 | 0.15 | 96 | 1009.7 |
| 20260509034443 | 47 | 296 | 1.0 | 2.0 | 0.00 | 0.14 | 0.14 | 96 | 1009.8 |
| 20260509033939 | 47 | 297 | 0.0 | 0.0 | 0.00 | 0.14 | 0.14 | 96 | 1009.7 |
| 20260509033437 | 47 | 297 | 0.0 | 0.0 | 0.00 | 0.14 | 0.14 | 96 | 1010.0 |
| 20260509032933 | 47 | 297 | 0.0 | 1.0 | 0.07 | 0.14 | 0.14 | 96 | 1009.9 |
| 20260509032431 | 47 | 297 | 1.0 | 1.0 | 0.07 | 0.14 | 0.14 | 96 | 1009.9 |
| 20260509031929 | 47 | 297 | 0.0 | 0.0 | 0.00 | 0.13 | 0.13 | 96 | 1010.0 |
| 20260509031426 | 47 | 297 | 1.0 | 1.0 | 0.00 | 0.13 | 0.13 | 96 | 1010.0 |
| 20260509030923 | 47 | 297 | 1.0 | 1.0 | 0.00 | 0.13 | 0.13 | 96 | 1010.3 |
| 20260509030421 | 47 | 297 | 0.0 | 1.0 | 0.05 | 0.13 | 0.13 | 96 | 1010.2 |
| 20260509025918 | 47 | 297 | 0.0 | 1.0 | 0.05 | 0.13 | 0.13 | 96 | 1010.2 |
| 20260509025413 | 47 | 297 | 0.0 | 1.0 | 0.00 | 0.12 | 0.12 | 96 | 1010.0 |
| 20260509024909 | 47 | 297 | 1.0 | 1.0 | 0.07 | 0.12 | 0.12 | 96 | 1010.2 |
| 20260509024405 | 47 | 297 | 0.0 | 0.0 | 0.07 | 0.12 | 0.12 | 96 | 1010.3 |
| 20260509023902 | 47 | 297 | 0.0 | 1.0 | 0.00 | 0.11 | 0.11 | 95 | 1010.4 |
| 20260509023359 | 47 | 296 | 1.0 | 1.0 | 0.05 | 0.11 | 0.11 | 95 | 1010.4 |
| 20260509022856 | 47 | 296 | 0.0 | 0.0 | 0.00 | 0.10 | 0.10 | 95 | 1010.5 |
| 20260509022353 | 47 | 296 | 1.0 | 1.0 | 0.00 | 0.10 | 0.10 | 95 | 1010.5 |
| 20260509021850 | 47 | 296 | 1.0 | 1.0 | 0.07 | 0.10 | 0.10 | 95 | 1010.6 |
| 20260509021347 | 47 | 296 | 1.0 | 2.0 | 0.07 | 0.10 | 0.10 | 95 | 1010.5 |
| 20260509020844 | 47 | 297 | 1.0 | 1.0 | 0.00 | 0.09 | 0.09 | 94 | 1010.2 |
| 20260509020343 | 47 | 297 | 0.0 | 0.0 | 0.00 | 0.09 | 0.09 | 94 | 1010.2 |
| 20260509015839 | 47 | 297 | 0.0 | 0.0 | 0.00 | 0.09 | 0.09 | 94 | 1010.2 |
| 20260509015338 | 47 | 297 | 2.0 | 2.0 | 0.00 | 0.09 | 0.09 | 94 | 1009.7 |
| 20260509014834 | 47 | 297 | 0.0 | 0.0 | 0.00 | 0.09 | 0.09 | 94 | 1009.8 |
| 20260509014331 | 47 | 297 | 1.0 | 1.0 | 0.00 | 0.09 | 0.09 | 94 | 1009.7 |
| 20260509013828 | 47 | 297 | 2.0 | 2.0 | 0.00 | 0.09 | 0.09 | 94 | 1010.0 |
| 20260509013324 | 47 | 297 | 1.0 | 1.0 | 0.05 | 0.09 | 0.09 | 94 | 1009.7 |
| 20260509012820 | 47 | 297 | 2.0 | 1.0 | 0.05 | 0.09 | 0.09 | 92 | 1009.8 |
| 20260509012317 | 47 | 297 | 1.0 | 1.0 | 0.00 | 0.08 | 0.08 | 91 | 1009.5 |
| 20260509011815 | 47 | 297 | 1.0 | 1.0 | 0.00 | 0.08 | 0.08 | 91 | 1009.7 |
| 20260509011312 | 48 | 297 | 0.0 | 0.0 | 0.00 | 0.08 | 0.08 | 90 | 1009.6 |
| 20260509010810 | 48 | 297 | 1.0 | 1.0 | 0.07 | 0.08 | 0.08 | 89 | 1009.6 |
| 20260509010306 | 48 | 297 | 0.0 | 0.0 | 0.00 | 0.07 | 0.07 | 89 | 1009.5 |
| 20260509005804 | 48 | 297 | 1.0 | 1.0 | 0.00 | 0.07 | 0.07 | 89 | 1009.5 |
| 20260509005305 | 48 | 297 | 0.0 | 0.0 | 0.00 | 0.07 | 0.07 | 88 | 1009.3 |
| 20260509004801 | 48 | 297 | 0.0 | 0.0 | 0.00 | 0.07 | 0.07 | 89 | 1009.4 |
| 20260509004258 | 48 | 298 | 0.0 | 1.0 | 0.00 | 0.07 | 0.07 | 90 | 1009.2 |
| 20260509003756 | 48 | 297 | 1.0 | 1.0 | 0.00 | 0.07 | 0.07 | 90 | 1009.2 |
| 20260509003254 | 48 | 297 | 0.0 | 1.0 | 0.00 | 0.07 | 0.07 | 87 | 1009.3 |
| 20260509002751 | 48 | 297 | 1.0 | 2.0 | 0.00 | 0.07 | 0.07 | 86 | 1009.5 |
| 20260509002248 | 48 | 300 | 2.0 | 4.0 | 0.00 | 0.07 | 0.07 | 86 | 1009.4 |
| 20260509001746 | 48 | 238 | 2.0 | 1.0 | 0.00 | 0.07 | 0.07 | 88 | 1009.1 |
| 20260509001241 | 48 | 239 | 2.0 | 2.0 | 0.00 | 0.07 | 0.07 | 87 | 1009.5 |
| 20260509000739 | 48 | 232 | 1.0 | 1.0 | 0.00 | 0.07 | 0.07 | 90 | 1009.4 |
| 20260509000236 | 48 | 231 | 2.0 | 2.0 | 0.00 | 0.07 | 0.07 | 91 | 1009.4 |
| 20260508235733 | 48 | 230 | 2.0 | 2.0 | 0.00 | 0.07 | 0.07 | 90 | 1009.3 |
| 20260508235230 | 48 | 230 | 0.0 | 0.0 | 0.00 | 0.07 | 0.07 | 89 | 1009.2 |
| 20260508234727 | 48 | 230 | 0.0 | 0.0 | 0.00 | 0.07 | 0.07 | 89 | 1008.6 |
| 20260508234223 | 48 | 230 | 0.0 | 0.0 | 0.00 | 0.07 | 0.07 | 89 | 1008.7 |
| 20260508233723 | 48 | 230 | 0.0 | 0.0 | 0.00 | 0.07 | 0.07 | 89 | 1008.7 |
| 20260508233221 | 48 | 231 | 0.0 | 1.0 | 0.00 | 0.07 | 0.07 | 87 | 1009.0 |
| 20260508232718 | 48 | 231 | 1.0 | 2.0 | 0.00 | 0.07 | 0.07 | 86 | 1008.6 |
| 20260508232214 | 48 | 231 | 1.0 | 2.0 | 0.00 | 0.07 | 0.07 | 86 | 1008.5 |
| 20260508231713 | 48 | 232 | 2.0 | 2.0 | 0.00 | 0.07 | 0.07 | 85 | 1008.6 |
| 20260508231209 | 48 | 237 | 3.0 | 3.0 | 0.00 | 0.07 | 0.07 | 84 | 1008.7 |
| 20260508230706 | 48 | 256 | 2.0 | 4.0 | 0.00 | 0.07 | 0.07 | 84 | 1008.9 |
| 20260508230202 | 48 | 248 | 4.0 | 6.0 | 0.00 | 0.07 | 0.07 | 84 | 1009.0 |
| 20260508225700 | 49 | 243 | 4.0 | 7.0 | 0.00 | 0.07 | 0.07 | 84 | 1008.9 |
| 20260508225155 | 49 | 254 | 5.0 | 10.0 | 0.07 | 0.07 | 0.07 | 84 | 1009.2 |
| 20260508224654 | 49 | 286 | 6.0 | 9.0 | 0.12 | 0.07 | 0.07 | 83 | 1009.3 |
| 20260508224151 | 49 | 279 | 4.0 | 9.0 | 0.12 | 0.06 | 0.06 | 83 | 1009.2 |
| 20260508223649 | 50 | 259 | 7.0 | 7.0 | 0.07 | 0.05 | 0.05 | 79 | 1009.1 |
| 20260508223146 | 50 | 237 | 4.0 | 8.0 | 0.00 | 0.04 | 0.04 | 77 | 1009.1 |
| 20260508222643 | 51 | 257 | 5.0 | 7.0 | 0.00 | 0.04 | 0.04 | 75 | 1009.2 |
| 20260508222140 | 51 | 240 | 6.0 | 10.0 | 0.00 | 0.04 | 0.04 | 73 | 1009.1 |
| 20260508221637 | 51 | 268 | 10.0 | 11.0 | 0.00 | 0.04 | 0.04 | 72 | 1009.2 |
| 20260508221132 | 52 | 246 | 4.0 | 9.0 | 0.00 | 0.04 | 0.04 | 71 | 1009.1 |
| 20260508220629 | 52 | 215 | 3.0 | 11.0 | 0.00 | 0.04 | 0.04 | 70 | 1009.1 |
| 20260508220126 | 52 | 264 | 7.0 | 10.0 | 0.00 | 0.04 | 0.04 | 69 | 1009.2 |
| 20260508215622 | 52 | 251 | 6.0 | 9.0 | 0.00 | 0.04 | 0.04 | 68 | 1009.1 |
| 20260508215119 | 52 | 237 | 4.0 | 7.0 | 0.00 | 0.04 | 0.04 | 68 | 1009.1 |
| 20260508214616 | 53 | 253 | 4.0 | 9.0 | 0.00 | 0.04 | 0.04 | 69 | 1009.2 |
| 20260508214113 | 53 | 291 | 4.0 | 4.0 | 0.00 | 0.04 | 0.04 | 69 | 1009.3 |
| 20260508213610 | 52 | 266 | 6.0 | 8.0 | 0.00 | 0.04 | 0.04 | 68 | 1009.2 |
| 20260508213106 | 52 | 224 | 3.0 | 8.0 | 0.00 | 0.04 | 0.04 | 68 | 1009.3 |
| 20260508212603 | 53 | 257 | 7.0 | 14.0 | 0.00 | 0.04 | 0.04 | 67 | 1009.2 |
| 20260508212059 | 53 | 241 | 4.0 | 16.0 | 0.00 | 0.04 | 0.04 | 67 | 1009.1 |
| 20260508211554 | 53 | 246 | 7.0 | 16.0 | 0.00 | 0.04 | 0.04 | 66 | 1009.2 |